User: anonymous   Login
Location: Unspecified
(0.0000°N, 0.0000°E)
Time: 17:57:44
(UTC+00:00)
Language:

Transit 2A - Orbit

View from above orbital plane
View from above orbital plane
View from above satellite
View from above satellite

Ground track
Ground track

The orbit data is extracted from the following two-line orbital elements,

1    45U 60007A   18055.24788926 -.00000080 +00000-0 +72135-5 0  9999
2    45 066.6935 085.4334 0259448 211.5547 146.9774 14.33588934944867
Epoch (UTC): 24 February 2018 05:56:57
Eccentricity: 0.0259448
inclination: 66.6935°
perigee height: 594 km
apogee height: 965 km
right ascension of ascending node: 85.4334°
argument of perigee: 211.5547°
revolutions per day: 14.33588934
mean anomaly at epoch: 146.9774°
orbit number at epoch: 94486

The dashed part of the orbit path shows where the satellite is in the earth's shadow,  

DLR